+ View the NASA Portal
+ Center for Near-Earth Object Studies
IMPORTANT:
The SSD Announcement email list is now available. Major changes are coming in the near future, including possible hostname and/or URL changes. To be notified of such changes, subscribe to this email list.
Please visit
this page
for more details.
Don't show this message again
JPL Small-Body Database Browser
Search:
[
help
]
344946 (2004 VM38)
Classification:
Outer Main-belt Asteroid
SPK-ID:
2344946
[
Ephemeris
|
Orbit Diagram
|
Orbital Elements
|
Mission Design
|
Physical Parameters
|
Discovery Circumstances
|
Close-Approach Data
]
[ show orbit diagram ]
Orbital Elements at Epoch 2458600.5 (2019-Apr-27.0) TDB
Reference:
JPL 4
(heliocentric ecliptic J2000)
Element
Value
Uncertainty (1-sigma)
Units
e
.2299793975157925
1.4394e-07
a
3.930545433864628
1.7094e-07
au
q
3.026600963075992
6.1915e-07
au
i
.04487454464795515
1.6768e-05
deg
node
96.55116481674149
0.025481
deg
peri
302.4070012429567
0.025481
deg
M
314.8835277514271
9.2141e-05
deg
t
p
2458957.205898660970
(2020-Apr-17.70589866)
0.00075002
TDB
period
2846.28024129283
7.79
0.00018568
5.084e-07
d
yr
n
.1264808695845359
8.2509e-09
deg/d
Q
4.834489904653265
2.1025e-07
au
Orbit Determination Parameters
# obs. used (total)
41
data-arc span
6318 days (17.30 yr)
first obs. used
1996-10-08
last obs. used
2014-01-25
planetary ephem.
DE431
SB-pert. ephem.
SB431-N16
condition code
0
norm. resid. RMS
.62582
source
ORB
producer
Otto Matic
solution date
2017-Apr-10 08:25:07
Additional Information
Earth MOID
= 2.03388 au
Jupiter MOID
= .598624 au
T_jup
= 3.015
[ show covariance matrix ]
[
Ephemeris
|
Orbit Diagram
|
Orbital Elements
|
Mission Design
|
Physical Parameters
|
Discovery Circumstances
|
Close-Approach Data
]
Physical Parameter Table
Parameter
Symbol
Value
Units
Sigma
Reference
Notes
absolute magnitude
H
16.2
n/a
MPO254673
344946 (2004 VM38)
Discovered 2004-Nov-04 by Spacewatch at Kitt Peak
Reference:
20121128/Numbers.arc
Last Updated:
2012-12-03
[ show close-approach data ]
[
Ephemeris
|
Orbit Diagram
|
Orbital Elements
|
Mission Design
|
Physical Parameters
|
Discovery Circumstances
|
Close-Approach Data
]
2019-Dec-06 00:55 UT
(server date/time)
Site Manager:
Ryan S. Park
Webmaster
:
Alan B. Chamberlin